Temp
51 51 51 52 52 52 52 53 54 54 54 53 53 53 53 53 53 53 54 54 55 55 55 56 56 57 57 57 57 58 58 58 59 59 60 60 59 59 59 59 60 59 59 58 58 58 57 57 57 56 56 56 56 56 56 56 56 56 56 55 55 55 55 54 54 54 55 55 55
49 49 50 52 52 52 52 52 53 53 53 52 53 53 53 53 53 53 54 54 55 55 55 56 56 56 57 57 57 57 58 58 58 59 59 60 60 59 59 59 59 59 59 59 58 58 57 57 56 56 56 56 56 56 56 56 56 56 55 55 55 55 55 55 55 54 54 55 55
48 49 49 50 50 50 51 51 51 51 51 51 53 53 53 53 54 54 54 54 54 55 55 55 55 56 56 57 57 58 58 58 59 59 59 59 60 60 59 59 59 59 59 59 58 58 57 57 56 56 56 56 56 56 56 56 56 56 55 55 55 55 55 55 55 55 55 55 55
48 48 49 49 49 49 49 50 50 50 50 51 52 53 53 53 54 54 54 54 54 54 54 55 55 55 56 56 57 58 58 59 59 59 59 59 59 59 59 59 59 59 59 59 58 58 57 57 57 56 56 56 56 56 56 56 56 56 55 55 55 55 55 55 55 56 56 56 55
48 49 49 50 49 49 49 50 49 49 50 51 52 52 53 53 53 53 53 53 53 54 54 54 54 55 55 56 56 57 57 58 59 59 59 59 59 60 60 59 59 59 59 59 58 58 58 57 57 56 56 56 56 56 56 56 56 55 55 56 56 55 55 55 55 56 56 56 55
47 48 49 49 49 49 49 50 49 49 50 50 50 51 51 52 52 52 52 52 53 53 53 54 54 54 55 55 55 56 56 56 57 57 58 58 59 59 59 59 59 59 59 59 58 58 58 57 56 56 56 56 56 56 56 56 56 55 55 55 55 55 55 55 55 55 55 55 55
48 48 49 49 49 49 49 49 49 49 49 49 49 49 50 50 51 51 52 52 52 53 53 54 54 54 54 54 54 54 55 55 56 56 57 57 58 58 59 59 58 58 58 58 58 58 57 57 56 56 56 56 56 56 56 56 56 55 55 55 55 55 55 55 55 55 55 55 54
48 49 49 49 49 49 49 48 48 48 49 49 49 49 49 50 50 51 52 52 52 52 53 53 53 53 53 53 53 53 54 54 55 56 56 56 57 57 58 58 58 58 57 58 58 57 57 57 56 56 56 56 56 56 56 56 56 55 55 55 55 55 55 55 55 55 55 54 54
49 49 49 49 49 49 48 48 48 48 48 48 48 48 49 50 51 51 51 52 52 53 53 52 53 53 53 53 53 53 53 54 54 55 55 56 56 56 57 57 57 57 57 57 57 57 57 57 56 56 56 56 56 56 56 56 56 55 55 55 55 55 55 55 55 55 54 54 54
48 49 49 49 48 48 48 48 47 47 47 48 48 49 50 51 51 52 52 52 52 52 52 52 52 52 52 52 52 52 53 53 54 54 54 55 55 56 56 56 57 57 58 58 58 58 57 57 56 56 56 56 56 56 56 56 56 55 55 55 55 55 55 55 55 54 54 54 54
48 48 48 49 48 48 48 47 47 48 48 48 48 49 50 51 51 51 52 52 52 52 52 52 52 52 52 52 52 52 52 53 53 54 54 54 55 55 56 56 57 57 58 58 58 58 57 56 56 56 56 56 56 56 56 56 56 55 55 55 55 55 54 54 54 54 54 54 54
48 48 48 48 48 47 47 47 47 48 48 48 48 49 49 50 50 51 52 52 52 52 52 52 52 52 51 51 52 52 52 52 53 53 54 54 54 55 55 56 56 57 58 58 58 58 56 55 55 56 56 56 56 56 56 56 55 55 55 55 55 54 54 54 54 54 54 54 54
47 47 47 47 47 47 47 47 47 48 48 48 48 49 49 50 51 51 52 52 52 52 52 52 52 52 51 51 51 52 52 52 52 53 53 54 54 55 55 56 56 57 57 58 58 57 56 55 55 55 55 55 55 55 55 55 55 55 55 54 54 54 54 54 54 54 54 54 54
47 46 46 47 47 47 47 47 47 48 48 48 48 49 49 50 50 51 51 51 51 51 51 52 52 52 52 51 51 51 51 52 52 52 53 53 54 55 55 56 56 56 57 57 57 57 56 55 55 55 55 55 55 55 55 55 55 55 55 54 54 54 54 54 54 54 54 54 54
46 46 46 46 46 46 47 47 47 48 48 48 49 49 49 50 50 51 51 51 51 51 51 51 51 51 52 52 51 51 51 51 52 52 52 53 54 54 55 56 56 56 56 56 56 56 56 55 55 55 55 55 55 55 55 55 55 55 55 54 54 54 54 54 54 54 54 54 54
46 46 46 46 46 46 46 47 48 48 48 48 49 49 49 49 50 50 50 51 51 51 51 51 51 51 51 51 51 51 51 51 51 51 52 52 53 54 55 56 56 56 56 56 56 56 56 56 55 55 55 55 55 55 55 55 55 55 55 55 55 54 54 54 54 54 54 54 54
46 46 47 47 47 47 47 47 48 48 48 48 49 49 49 49 50 50 50 51 51 51 51 51 51 50 50 51 51 51 51 50 51 51 52 52 53 54 55 56 56 55 55 55 55 56 56 56 55 55 55 55 55 55 55 55 55 55 55 55 55 54 54 55 55 54 54 55 54
46 46 47 47 47 47 47 47 48 48 48 48 48 49 49 49 49 49 50 50 51 51 51 50 50 50 50 50 50 50 50 50 51 51 52 53 54 54 55 55 55 55 55 55 55 55 56 56 56 55 55 55 55 55 55 55 55 55 55 54 54 54 54 55 55 55 55 55 55
46 46 46 46 47 47 47 47 47 48 48 48 48 48 49 49 49 49 49 50 51 51 51 50 50 50 49 49 49 50 50 50 51 51 52 54 54 54 55 55 55 55 55 55 55 55 56 56 56 55 55 55 55 55 55 55 55 54 54 54 54 54 54 54 55 55 55 55 55
46 46 46 46 46 46 46 46 47 47 47 48 48 48 48 49 49 49 49 49 50 50 50 50 50 49 49 49 49 50 50 50 51 52 53 54 54 54 55 55 55 55 55 55 55 55 56 56 56 55 55 55 55 55 55 54 54 54 54 54 54 54 54 54 55 55 55 55 55
45 45 45 45 45 45 45 46 46 47 47 47 47 48 48 48 48 49 49 49 50 50 50 50 49 49 49 49 49 50 50 51 51 52 53 54 54 54 55 55 55 55 55 55 55 55 56 56 56 55 55 55 55 54 54 54 54 54 54 54 54 54 54 54 54 55 55 54 54
45 44 44 44 44 45 45 46 46 46 47 47 47 47 48 48 48 49 49 50 50 50 50 50 50 49 49 49 49 50 50 51 52 52 53 53 54 54 55 55 55 55 55 55 55 56 56 56 55 55 55 55 54 54 54 54 54 54 54 54 54 54 54 54 54 54 54 54 54
44 44 44 45 45 45 46 46 46 46 46 46 47 47 47 48 48 49 49 49 50 50 50 50 50 50 50 50 50 50 50 50 51 53 53 54 54 54 54 55 54 54 54 55 55 55 55 55 55 55 55 54 54 54 54 54 54 54 54 53 53 53 53 54 54 54 54 53 53
43 44 44 44 44 44 45 45 45 45 46 46 46 47 47 48 48 49 49 49 49 49 50 50 50 50 50 50 50 50 50 50 51 52 53 54 54 54 54 54 54 54 54 54 55 55 55 54 54 54 54 54 54 54 54 54 54 53 53 53 53 53 53 53 53 53 53 53 53
43 43 43 43 43 44 44 44 44 45 45 45 46 46 47 47 48 49 49 49 49 49 50 50 50 50 50 50 50 50 50 50 50 51 52 53 54 54 53 54 54 54 54 55 57 57 56 55 54 54 54 54 54 54 54 54 53 53 53 53 53 52 52 52 52 52 53 52 52
43 43 43 43 43 43 44 44 44 44 45 45 46 46 47 47 48 48 49 49 49 49 49 50 49 50 50 49 49 49 50 50 50 51 52 53 53 53 53 53 54 54 54 56 57 58 57 56 55 55 54 54 54 54 54 53 53 53 53 53 52 52 52 52 52 52 52 52 52
43 43 43 43 43 43 43 44 44 44 45 45 45 46 46 47 48 48 49 49 49 49 49 49 49 50 50 49 49 49 49 49 50 51 51 52 53 53 53 53 53 53 54 56 57 57 57 57 56 55 55 54 54 54 54 53 53 53 53 52 52 52 52 51 51 51 51 51 52
43 43 42 42 42 42 43 43 44 44 44 44 45 45 46 47 47 48 48 49 49 49 49 49 49 49 49 49 49 49 49 49 50 50 51 52 52 53 53 53 53 54 55 57 57 57 58 58 58 57 56 55 54 54 54 53 53 53 53 52 52 52 52 51 51 51 51 51 51
43 42 42 42 42 42 43 43 43 43 44 44 45 45 46 46 47 48 48 49 49 49 49 49 49 49 49 48 48 49 49 49 49 50 50 51 52 52 53 54 53 54 55 57 57 58 58 58 58 57 57 56 54 54 54 53 53 53 52 52 52 52 52 51 51 51 51 50 50
43 42 41 41 41 42 42 42 43 43 43 44 44 45 45 46 47 47 48 48 48 49 49 49 49 48 48 48 48 48 49 49 49 49 50 50 51 52 53 54 54 54 55 57 58 58 58 57 57 57 57 56 55 54 54 54 53 53 52 52 52 52 52 51 51 51 51 50 50
42 42 41 41 41 41 42 42 43 43 44 44 44 45 45 45 46 47 48 48 49 49 49 49 48 48 48 48 48 48 48 49 49 49 49 49 50 51 52 53 54 55 56 57 58 58 58 58 57 57 57 57 55 54 54 54 53 53 52 52 52 52 51 51 51 51 51 50 50
42 41 41 41 41 42 43 44 45 45 46 46 46 46 46 47 47 47 48 48 49 49 49 48 48 48 48 48 48 48 48 48 49 49 49 50 50 51 52 53 54 55 56 58 58 58 58 58 57 57 57 57 56 54 54 54 53 53 53 52 52 51 51 51 51 51 51 51 51
42 42 42 42 42 43 44 46 46 47 47 47 47 47 48 48 47 48 48 48 49 49 48 48 47 47 47 47 48 48 48 49 49 49 49 50 50 51 52 53 54 55 57 58 58 59 59 58 58 57 57 57 56 54 54 53 53 53 52 52 52 51 51 51 51 51 51 51 51
42 41 41 41 42 43 44 44 45 45 46 46 47 47 47 47 47 47 47 48 49 49 48 48 47 47 47 48 48 48 48 49 49 49 49 49 50 51 52 53 54 55 57 58 58 59 59 58 58 57 57 57 55 54 53 53 53 52 52 52 51 51 51 51 51 51 51 51 51
41 40 40 40 41 41 42 42 43 44 45 45 46 47 47 47 46 46 47 49 49 49 48 48 47 48 48 48 48 48 48 48 48 48 49 49 50 51 52 53 54 55 57 58 58 59 59 58 58 57 57 56 55 54 53 53 52 52 51 51 51 51 51 51 51 51 51 51 51
40 40 39 39 40 40 41 41 41 42 43 44 45 46 46 46 46 47 47 49 49 48 47 47 47 47 48 48 48 48 48 48 48 48 49 49 50 51 51 52 53 55 56 58 58 58 58 58 58 57 57 56 54 53 53 53 52 51 51 51 50 50 50 50 50 51 51 51 51
40 40 39 39 39 40 40 41 41 41 42 43 44 44 45 45 46 47 48 49 48 47 47 46 46 46 47 47 47 48 48 48 48 48 48 49 49 50 51 52 53 54 56 57 57 58 58 58 58 57 56 55 53 53 53 52 52 51 51 50 50 50 50 50 50 50 51 51 51
40 39 39 39 39 40 40 41 41 41 41 42 43 43 44 45 45 46 48 49 48 47 46 46 46 46 47 47 48 48 48 48 48 48 48 48 49 50 50 51 52 54 55 56 57 58 58 58 58 57 56 54 53 52 52 52 51 51 50 50 50 50 50 50 50 50 51 51 52
39 39 38 38 39 40 40 41 41 41 41 42 43 43 44 44 45 46 48 48 47 46 45 45 45 46 47 48 48 47 47 48 48 48 48 48 49 50 51 51 52 53 55 56 57 57 58 58 58 57 56 54 53 52 52 51 51 50 50 50 49 49 49 50 50 50 51 51 53
38 38 38 38 39 40 40 40 41 41 42 42 42 43 44 44 46 47 48 48 47 46 45 45 45 46 47 49 48 47 47 47 47 48 48 48 49 51 52 52 52 53 54 55 56 57 57 58 58 57 56 53 53 52 52 51 50 50 49 49 49 49 49 49 50 50 50 51 53
38 38 38 39 39 40 40 40 41 41 42 42 42 43 44 46 46 46 47 47 46 45 45 45 45 46 47 48 48 47 46 46 47 47 48 49 49 50 51 51 52 53 53 54 55 56 57 58 58 57 55 53 52 52 52 51 50 49 49 49 49 49 48 49 49 50 50 51 52
MSLP
1022.98 1022.86 1022.74 1022.58 1022.42 1022.26 1022.06 1021.86 1021.66 1021.46 1021.30 1021.14 1020.86 1020.62 1020.38 1020.14 1019.82 1019.58 1019.30 1019.02 1018.78 1018.46 1018.14 1017.82 1017.54 1017.22 1016.94 1016.70 1016.46 1016.18 1015.86 1015.58 1015.30 1015.06 1014.82 1014.62 1014.46 1014.30 1014.14 1013.94 1013.70 1013.54 1013.50 1013.46 1013.46 1013.54 1013.58 1013.70 1013.74 1013.74 1013.70 1013.62 1013.70 1013.74 1013.78 1013.90 1014.02 1014.14 1014.26 1014.34 1014.46 1014.58 1014.70 1014.82 1014.78 1014.78 1014.86 1015.10 1015.34
1023.02 1022.90 1022.74 1022.58 1022.42 1022.26 1022.06 1021.86 1021.66 1021.50 1021.34 1021.14 1020.98 1020.74 1020.46 1020.18 1019.90 1019.58 1019.30 1019.02 1018.78 1018.50 1018.18 1017.82 1017.50 1017.18 1016.86 1016.58 1016.34 1016.06 1015.74 1015.42 1015.14 1014.86 1014.58 1014.38 1014.14 1014.02 1013.86 1013.74 1013.50 1013.30 1013.18 1013.14 1013.18 1013.22 1013.30 1013.30 1013.42 1013.42 1013.42 1013.38 1013.38 1013.42 1013.46 1013.54 1013.70 1013.78 1013.86 1013.94 1014.14 1014.30 1014.46 1014.54 1014.54 1014.58 1014.66 1014.86 1015.10
1023.02 1022.86 1022.74 1022.58 1022.42 1022.26 1022.06 1021.86 1021.70 1021.50 1021.38 1021.18 1020.98 1020.74 1020.50 1020.18 1019.94 1019.62 1019.34 1019.02 1018.78 1018.54 1018.22 1017.86 1017.50 1017.14 1016.86 1016.50 1016.18 1015.90 1015.58 1015.30 1014.98 1014.66 1014.38 1014.10 1013.86 1013.70 1013.58 1013.46 1013.30 1013.14 1012.94 1012.86 1012.94 1012.94 1012.94 1013.02 1013.02 1013.06 1013.10 1013.06 1013.02 1013.02 1013.02 1013.22 1013.34 1013.46 1013.54 1013.62 1013.78 1013.98 1014.14 1014.26 1014.30 1014.38 1014.46 1014.58 1014.86
1023.02 1022.86 1022.70 1022.50 1022.38 1022.26 1022.10 1021.86 1021.70 1021.50 1021.30 1021.14 1020.90 1020.70 1020.46 1020.22 1019.94 1019.66 1019.34 1019.02 1018.78 1018.50 1018.18 1017.86 1017.50 1017.14 1016.86 1016.46 1016.10 1015.78 1015.46 1015.18 1014.86 1014.54 1014.18 1013.90 1013.66 1013.46 1013.30 1013.10 1012.98 1012.82 1012.66 1012.58 1012.62 1012.66 1012.66 1012.66 1012.74 1012.74 1012.74 1012.70 1012.74 1012.70 1012.74 1012.86 1013.02 1013.10 1013.18 1013.30 1013.46 1013.66 1013.86 1013.98 1014.06 1014.14 1014.26 1014.30 1014.54
1022.98 1022.82 1022.70 1022.50 1022.34 1022.22 1022.06 1021.86 1021.70 1021.46 1021.30 1021.06 1020.86 1020.58 1020.34 1020.14 1019.86 1019.58 1019.30 1019.02 1018.74 1018.42 1018.14 1017.86 1017.54 1017.14 1016.82 1016.46 1016.14 1015.78 1015.46 1015.10 1014.78 1014.46 1014.10 1013.78 1013.46 1013.22 1012.98 1012.82 1012.66 1012.46 1012.30 1012.18 1012.30 1012.34 1012.34 1012.34 1012.38 1012.38 1012.38 1012.42 1012.42 1012.38 1012.38 1012.50 1012.66 1012.78 1012.86 1013.02 1013.14 1013.34 1013.54 1013.74 1013.86 1013.94 1013.98 1014.06 1014.26
1022.94 1022.74 1022.58 1022.42 1022.30 1022.14 1021.94 1021.74 1021.58 1021.46 1021.22 1021.02 1020.78 1020.54 1020.30 1020.02 1019.74 1019.50 1019.22 1018.90 1018.62 1018.30 1018.02 1017.74 1017.42 1017.06 1016.74 1016.42 1016.10 1015.74 1015.46 1015.06 1014.74 1014.42 1014.02 1013.62 1013.30 1013.02 1012.78 1012.58 1012.46 1012.30 1012.10 1011.94 1011.86 1011.90 1012.02 1012.10 1012.14 1012.06 1012.02 1012.06 1012.06 1012.06 1012.10 1012.18 1012.30 1012.46 1012.58 1012.74 1012.86 1013.02 1013.18 1013.38 1013.58 1013.70 1013.78 1013.82 1013.98
1022.86 1022.70 1022.54 1022.34 1022.18 1022.02 1021.86 1021.66 1021.50 1021.30 1021.14 1020.90 1020.66 1020.42 1020.18 1019.90 1019.66 1019.42 1019.14 1018.86 1018.50 1018.18 1017.86 1017.58 1017.30 1016.98 1016.66 1016.30 1016.02 1015.66 1015.34 1014.98 1014.62 1014.30 1013.90 1013.54 1013.14 1012.86 1012.58 1012.34 1012.18 1012.14 1012.06 1011.90 1011.70 1011.58 1011.70 1011.86 1011.90 1011.82 1011.74 1011.78 1011.86 1011.82 1011.86 1011.94 1012.02 1012.14 1012.30 1012.42 1012.54 1012.66 1012.86 1013.06 1013.22 1013.42 1013.54 1013.58 1013.70
1022.82 1022.66 1022.50 1022.30 1022.14 1021.94 1021.74 1021.58 1021.42 1021.22 1021.02 1020.78 1020.58 1020.30 1020.02 1019.78 1019.54 1019.26 1018.98 1018.66 1018.38 1018.10 1017.82 1017.46 1017.14 1016.86 1016.58 1016.26 1015.86 1015.50 1015.14 1014.82 1014.46 1014.06 1013.74 1013.38 1013.02 1012.66 1012.38 1012.14 1011.90 1011.86 1011.82 1011.74 1011.58 1011.46 1011.42 1011.54 1011.62 1011.58 1011.46 1011.46 1011.50 1011.54 1011.58 1011.70 1011.74 1011.78 1011.90 1012.10 1012.22 1012.38 1012.58 1012.78 1012.98 1013.10 1013.18 1013.30 1013.42
1022.74 1022.58 1022.38 1022.22 1022.02 1021.86 1021.70 1021.50 1021.34 1021.14 1020.94 1020.70 1020.46 1020.14 1019.90 1019.62 1019.38 1019.10 1018.82 1018.54 1018.22 1017.94 1017.66 1017.34 1017.02 1016.74 1016.42 1016.10 1015.74 1015.38 1015.02 1014.66 1014.26 1013.86 1013.46 1013.14 1012.82 1012.46 1012.14 1011.90 1011.66 1011.46 1011.38 1011.42 1011.34 1011.18 1011.10 1011.14 1011.22 1011.26 1011.22 1011.14 1011.14 1011.18 1011.30 1011.34 1011.42 1011.46 1011.58 1011.74 1011.90 1012.10 1012.30 1012.46 1012.70 1012.86 1012.90 1013.02 1013.14
1022.70 1022.50 1022.30 1022.10 1021.94 1021.74 1021.58 1021.38 1021.18 1021.02 1020.82 1020.54 1020.26 1020.02 1019.74 1019.46 1019.18 1018.94 1018.70 1018.38 1018.06 1017.74 1017.46 1017.18 1016.86 1016.58 1016.22 1015.86 1015.54 1015.14 1014.82 1014.46 1014.06 1013.66 1013.26 1012.90 1012.58 1012.22 1011.90 1011.66 1011.42 1011.14 1010.94 1010.90 1010.90 1010.86 1010.74 1010.74 1010.78 1010.82 1010.86 1010.86 1010.86 1010.86 1010.94 1011.02 1011.06 1011.14 1011.22 1011.46 1011.62 1011.82 1012.02 1012.26 1012.46 1012.62 1012.74 1012.78 1012.86
1022.62 1022.46 1022.26 1022.02 1021.86 1021.62 1021.46 1021.30 1021.06 1020.86 1020.62 1020.38 1020.10 1019.86 1019.58 1019.30 1019.02 1018.78 1018.50 1018.18 1017.90 1017.58 1017.30 1017.02 1016.74 1016.42 1016.06 1015.70 1015.34 1014.98 1014.58 1014.26 1013.86 1013.46 1013.02 1012.62 1012.26 1011.90 1011.58 1011.30 1011.10 1010.86 1010.62 1010.46 1010.42 1010.46 1010.46 1010.46 1010.46 1010.46 1010.50 1010.54 1010.54 1010.58 1010.62 1010.74 1010.78 1010.82 1010.90 1011.10 1011.30 1011.54 1011.74 1012.02 1012.22 1012.42 1012.54 1012.58 1012.70
1022.58 1022.38 1022.14 1021.94 1021.74 1021.58 1021.38 1021.22 1020.98 1020.74 1020.46 1020.22 1019.98 1019.70 1019.42 1019.14 1018.86 1018.58 1018.30 1018.02 1017.74 1017.42 1017.10 1016.82 1016.58 1016.26 1015.90 1015.54 1015.14 1014.78 1014.38 1013.98 1013.58 1013.18 1012.74 1012.34 1011.90 1011.50 1011.18 1010.90 1010.70 1010.50 1010.30 1010.14 1010.02 1010.02 1010.10 1010.14 1010.14 1010.14 1010.14 1010.14 1010.18 1010.26 1010.34 1010.46 1010.50 1010.54 1010.62 1010.78 1011.02 1011.22 1011.46 1011.70 1011.98 1012.18 1012.30 1012.38 1012.54
1022.50 1022.30 1022.06 1021.86 1021.62 1021.46 1021.30 1021.10 1020.86 1020.62 1020.34 1020.06 1019.82 1019.58 1019.30 1018.98 1018.70 1018.42 1018.14 1017.82 1017.50 1017.18 1016.86 1016.58 1016.34 1016.06 1015.74 1015.38 1015.02 1014.58 1014.14 1013.70 1013.26 1012.82 1012.38 1011.94 1011.50 1011.10 1010.74 1010.46 1010.22 1010.02 1009.86 1009.74 1009.58 1009.58 1009.58 1009.70 1009.74 1009.74 1009.74 1009.74 1009.82 1009.86 1009.98 1010.10 1010.18 1010.26 1010.34 1010.50 1010.70 1010.90 1011.14 1011.42 1011.70 1011.90 1012.10 1012.22 1012.38
1022.46 1022.22 1021.98 1021.74 1021.58 1021.38 1021.18 1020.98 1020.74 1020.46 1020.22 1019.94 1019.70 1019.42 1019.14 1018.86 1018.54 1018.26 1017.94 1017.62 1017.30 1017.02 1016.74 1016.38 1016.14 1015.86 1015.58 1015.22 1014.78 1014.34 1013.90 1013.42 1012.90 1012.46 1011.98 1011.46 1011.02 1010.66 1010.30 1009.98 1009.74 1009.58 1009.38 1009.22 1009.14 1009.06 1009.10 1009.14 1009.22 1009.30 1009.30 1009.38 1009.42 1009.50 1009.62 1009.74 1009.86 1009.94 1010.06 1010.18 1010.38 1010.58 1010.86 1011.14 1011.42 1011.66 1011.86 1012.02 1012.18
1022.34 1022.14 1021.86 1021.66 1021.46 1021.30 1021.10 1020.90 1020.66 1020.38 1020.10 1019.82 1019.54 1019.26 1019.02 1018.74 1018.42 1018.10 1017.78 1017.46 1017.14 1016.86 1016.58 1016.18 1015.90 1015.62 1015.30 1015.02 1014.58 1014.14 1013.62 1013.14 1012.58 1012.02 1011.46 1010.94 1010.50 1010.14 1009.78 1009.46 1009.22 1009.02 1008.90 1008.82 1008.74 1008.70 1008.66 1008.66 1008.82 1008.90 1008.98 1009.02 1009.02 1009.14 1009.30 1009.46 1009.54 1009.62 1009.74 1009.86 1010.02 1010.26 1010.58 1010.86 1011.18 1011.42 1011.58 1011.78 1012.02
1022.22 1022.02 1021.78 1021.58 1021.42 1021.18 1021.02 1020.82 1020.58 1020.30 1020.02 1019.74 1019.42 1019.14 1018.86 1018.54 1018.26 1017.94 1017.62 1017.30 1016.98 1016.66 1016.34 1016.02 1015.74 1015.38 1015.02 1014.70 1014.34 1013.90 1013.38 1012.78 1012.18 1011.58 1010.98 1010.42 1009.94 1009.54 1009.22 1008.94 1008.74 1008.58 1008.50 1008.50 1008.46 1008.38 1008.30 1008.30 1008.42 1008.58 1008.66 1008.66 1008.70 1008.82 1008.94 1009.10 1009.18 1009.30 1009.46 1009.58 1009.74 1010.02 1010.30 1010.62 1010.90 1011.14 1011.34 1011.54 1011.82
1022.14 1021.90 1021.70 1021.50 1021.34 1021.14 1020.90 1020.66 1020.46 1020.14 1019.86 1019.58 1019.30 1019.02 1018.70 1018.38 1018.06 1017.78 1017.50 1017.18 1016.86 1016.46 1016.14 1015.86 1015.58 1015.22 1014.86 1014.46 1014.06 1013.58 1013.06 1012.46 1011.82 1011.14 1010.50 1009.86 1009.38 1009.02 1008.70 1008.46 1008.30 1008.26 1008.26 1008.26 1008.14 1008.06 1007.98 1007.98 1008.02 1008.14 1008.30 1008.30 1008.34 1008.46 1008.58 1008.74 1008.86 1009.02 1009.18 1009.34 1009.58 1009.78 1010.02 1010.34 1010.62 1010.86 1011.10 1011.34 1011.58
1022.06 1021.86 1021.62 1021.46 1021.26 1021.02 1020.78 1020.58 1020.30 1020.02 1019.74 1019.46 1019.14 1018.86 1018.58 1018.26 1017.98 1017.66 1017.34 1017.06 1016.74 1016.38 1015.98 1015.62 1015.34 1015.10 1014.74 1014.30 1013.86 1013.42 1012.86 1012.18 1011.46 1010.74 1010.02 1009.42 1008.86 1008.54 1008.30 1008.14 1008.02 1008.02 1007.98 1007.98 1007.86 1007.74 1007.66 1007.62 1007.62 1007.74 1007.86 1008.02 1008.02 1008.06 1008.22 1008.38 1008.58 1008.74 1008.98 1009.14 1009.34 1009.58 1009.82 1010.10 1010.38 1010.66 1010.90 1011.14 1011.42
1022.02 1021.78 1021.58 1021.38 1021.18 1020.94 1020.74 1020.46 1020.22 1019.94 1019.66 1019.34 1019.06 1018.74 1018.42 1018.14 1017.86 1017.54 1017.18 1016.86 1016.50 1016.18 1015.86 1015.50 1015.18 1014.86 1014.58 1014.14 1013.74 1013.18 1012.62 1012.02 1011.26 1010.46 1009.70 1009.06 1008.58 1008.30 1008.06 1007.94 1007.86 1007.74 1007.70 1007.62 1007.50 1007.42 1007.34 1007.30 1007.30 1007.30 1007.46 1007.58 1007.70 1007.78 1007.94 1008.10 1008.26 1008.46 1008.74 1008.94 1009.14 1009.42 1009.66 1009.90 1010.14 1010.46 1010.74 1010.98 1011.18
1021.94 1021.74 1021.54 1021.30 1021.14 1020.90 1020.66 1020.38 1020.10 1019.82 1019.54 1019.22 1018.90 1018.58 1018.30 1017.98 1017.66 1017.34 1017.02 1016.66 1016.30 1016.02 1015.74 1015.38 1015.02 1014.70 1014.34 1013.90 1013.46 1012.90 1012.34 1011.78 1011.10 1010.34 1009.58 1009.02 1008.54 1008.18 1007.94 1007.82 1007.70 1007.58 1007.42 1007.30 1007.14 1007.02 1006.98 1006.94 1006.90 1006.98 1007.02 1007.14 1007.30 1007.46 1007.62 1007.78 1008.02 1008.22 1008.46 1008.74 1008.94 1009.18 1009.46 1009.74 1010.02 1010.34 1010.58 1010.78 1011.02
1021.86 1021.66 1021.46 1021.26 1021.02 1020.78 1020.54 1020.30 1019.98 1019.70 1019.42 1019.14 1018.82 1018.50 1018.14 1017.82 1017.50 1017.18 1016.86 1016.54 1016.14 1015.86 1015.58 1015.22 1014.90 1014.58 1014.14 1013.74 1013.26 1012.74 1012.14 1011.58 1011.02 1010.30 1009.62 1009.10 1008.58 1008.14 1007.86 1007.70 1007.50 1007.34 1007.14 1006.98 1006.78 1006.62 1006.54 1006.46 1006.46 1006.54 1006.62 1006.74 1006.90 1007.06 1007.30 1007.50 1007.74 1008.02 1008.26 1008.54 1008.78 1009.02 1009.30 1009.58 1009.90 1010.18 1010.46 1010.66 1010.86
1021.70 1021.50 1021.30 1021.14 1020.90 1020.66 1020.42 1020.10 1019.86 1019.58 1019.30 1019.02 1018.70 1018.34 1018.02 1017.70 1017.34 1017.02 1016.70 1016.34 1016.02 1015.74 1015.38 1015.06 1014.74 1014.42 1014.06 1013.62 1013.18 1012.66 1012.06 1011.50 1010.90 1010.30 1009.66 1009.14 1008.62 1008.18 1007.86 1007.58 1007.38 1007.14 1006.86 1006.62 1006.42 1006.18 1006.02 1005.94 1005.98 1006.02 1006.18 1006.38 1006.54 1006.74 1006.98 1007.26 1007.54 1007.82 1008.10 1008.30 1008.58 1008.86 1009.14 1009.46 1009.74 1010.06 1010.30 1010.58 1010.78
1021.58 1021.34 1021.18 1021.02 1020.74 1020.50 1020.26 1019.94 1019.70 1019.46 1019.14 1018.86 1018.50 1018.18 1017.86 1017.54 1017.22 1016.86 1016.54 1016.18 1015.90 1015.58 1015.26 1014.90 1014.62 1014.30 1013.94 1013.54 1013.10 1012.58 1012.06 1011.46 1010.86 1010.26 1009.70 1009.14 1008.66 1008.26 1007.86 1007.58 1007.30 1007.06 1006.78 1006.50 1006.22 1005.90 1005.66 1005.50 1005.50 1005.62 1005.86 1006.10 1006.30 1006.50 1006.74 1007.02 1007.34 1007.66 1007.90 1008.14 1008.42 1008.70 1009.02 1009.38 1009.66 1009.94 1010.22 1010.46 1010.74
1021.46 1021.30 1021.06 1020.86 1020.62 1020.38 1020.14 1019.86 1019.58 1019.30 1019.02 1018.74 1018.42 1018.10 1017.78 1017.46 1017.10 1016.74 1016.42 1016.06 1015.78 1015.46 1015.14 1014.82 1014.50 1014.14 1013.78 1013.42 1013.02 1012.58 1012.06 1011.50 1010.90 1010.26 1009.66 1009.14 1008.70 1008.30 1007.98 1007.66 1007.38 1007.10 1006.86 1006.58 1006.30 1006.02 1005.74 1005.50 1005.46 1005.50 1005.74 1005.98 1006.18 1006.46 1006.74 1007.02 1007.30 1007.58 1007.78 1008.02 1008.30 1008.58 1008.98 1009.34 1009.62 1009.86 1010.14 1010.46 1010.70
1021.30 1021.14 1020.94 1020.74 1020.50 1020.30 1020.02 1019.74 1019.50 1019.22 1018.94 1018.62 1018.30 1018.02 1017.70 1017.34 1017.02 1016.62 1016.30 1015.98 1015.66 1015.34 1015.02 1014.70 1014.34 1014.02 1013.66 1013.30 1012.86 1012.46 1012.02 1011.54 1011.02 1010.42 1009.78 1009.18 1008.74 1008.38 1008.10 1007.82 1007.54 1007.30 1007.06 1006.78 1006.50 1006.26 1006.10 1005.94 1005.82 1005.74 1005.82 1006.02 1006.30 1006.66 1006.98 1007.14 1007.38 1007.58 1007.74 1008.02 1008.30 1008.62 1009.02 1009.30 1009.58 1009.86 1010.14 1010.42 1010.70
1021.22 1021.02 1020.82 1020.58 1020.38 1020.14 1019.90 1019.66 1019.42 1019.14 1018.86 1018.50 1018.18 1017.86 1017.58 1017.26 1016.90 1016.58 1016.22 1015.90 1015.54 1015.22 1014.90 1014.58 1014.26 1013.90 1013.58 1013.18 1012.74 1012.34 1011.90 1011.50 1011.02 1010.54 1009.94 1009.38 1008.86 1008.46 1008.14 1007.90 1007.70 1007.46 1007.30 1007.06 1006.82 1006.58 1006.46 1006.34 1006.30 1006.26 1006.22 1006.34 1006.58 1006.86 1007.14 1007.34 1007.50 1007.70 1007.90 1008.14 1008.42 1008.74 1009.10 1009.42 1009.70 1009.98 1010.18 1010.42 1010.74
1021.14 1020.90 1020.70 1020.50 1020.30 1020.06 1019.86 1019.54 1019.30 1019.02 1018.74 1018.42 1018.14 1017.82 1017.46 1017.14 1016.82 1016.50 1016.14 1015.82 1015.46 1015.14 1014.86 1014.54 1014.14 1013.86 1013.50 1013.14 1012.74 1012.30 1011.86 1011.46 1011.02 1010.58 1010.10 1009.54 1009.02 1008.58 1008.22 1007.94 1007.74 1007.58 1007.46 1007.30 1007.10 1006.98 1006.82 1006.70 1006.70 1006.74 1006.74 1006.74 1006.86 1007.02 1007.22 1007.46 1007.66 1007.90 1008.14 1008.42 1008.66 1008.90 1009.18 1009.50 1009.82 1010.10 1010.34 1010.58 1010.82
1021.02 1020.82 1020.58 1020.42 1020.22 1019.98 1019.74 1019.46 1019.14 1018.86 1018.62 1018.34 1018.06 1017.78 1017.46 1017.10 1016.74 1016.46 1016.10 1015.74 1015.42 1015.10 1014.78 1014.46 1014.14 1013.82 1013.50 1013.10 1012.74 1012.30 1011.86 1011.46 1011.02 1010.58 1010.14 1009.66 1009.18 1008.74 1008.30 1007.98 1007.74 1007.54 1007.42 1007.30 1007.18 1007.14 1007.06 1006.98 1006.90 1006.98 1007.02 1007.02 1007.02 1007.10 1007.26 1007.50 1007.82 1008.10 1008.34 1008.58 1008.86 1009.06 1009.30 1009.58 1009.86 1010.14 1010.42 1010.66 1010.90
1020.90 1020.74 1020.58 1020.34 1020.14 1019.90 1019.58 1019.30 1019.06 1018.82 1018.58 1018.26 1018.02 1017.70 1017.34 1017.02 1016.74 1016.38 1016.02 1015.66 1015.38 1015.06 1014.74 1014.46 1014.10 1013.78 1013.50 1013.14 1012.70 1012.26 1011.82 1011.38 1011.02 1010.58 1010.18 1009.70 1009.22 1008.78 1008.34 1008.02 1007.74 1007.50 1007.30 1007.18 1007.14 1007.10 1007.06 1007.02 1007.02 1007.02 1007.10 1007.06 1007.14 1007.26 1007.38 1007.58 1007.86 1008.18 1008.46 1008.66 1008.86 1009.10 1009.34 1009.58 1009.86 1010.14 1010.42 1010.62 1010.86
1020.82 1020.66 1020.50 1020.30 1020.06 1019.82 1019.54 1019.26 1019.02 1018.74 1018.46 1018.18 1017.90 1017.62 1017.30 1016.98 1016.62 1016.30 1016.02 1015.66 1015.34 1015.06 1014.78 1014.46 1014.14 1013.86 1013.54 1013.14 1012.74 1012.30 1011.82 1011.34 1010.98 1010.58 1010.14 1009.74 1009.30 1008.86 1008.42 1008.02 1007.74 1007.46 1007.30 1007.14 1007.02 1006.98 1006.94 1006.90 1006.86 1006.94 1007.02 1007.02 1007.14 1007.30 1007.46 1007.58 1007.86 1008.14 1008.46 1008.70 1008.90 1009.06 1009.30 1009.50 1009.78 1010.06 1010.34 1010.58 1010.86
1020.74 1020.58 1020.42 1020.22 1020.02 1019.74 1019.46 1019.14 1018.90 1018.66 1018.38 1018.14 1017.86 1017.58 1017.30 1016.94 1016.62 1016.30 1016.02 1015.66 1015.38 1015.02 1014.70 1014.38 1014.14 1013.82 1013.50 1013.14 1012.74 1012.30 1011.86 1011.30 1010.90 1010.50 1010.14 1009.74 1009.30 1008.86 1008.46 1008.06 1007.74 1007.46 1007.18 1007.02 1006.86 1006.78 1006.74 1006.74 1006.74 1006.82 1006.90 1007.02 1007.14 1007.30 1007.50 1007.70 1007.86 1008.14 1008.42 1008.66 1008.86 1009.02 1009.22 1009.46 1009.70 1009.98 1010.30 1010.58 1010.86
1020.58 1020.46 1020.30 1020.14 1019.90 1019.62 1019.34 1019.02 1018.78 1018.54 1018.30 1018.06 1017.82 1017.54 1017.26 1016.90 1016.58 1016.30 1015.98 1015.62 1015.30 1014.98 1014.62 1014.30 1014.06 1013.74 1013.42 1013.02 1012.62 1012.22 1011.74 1011.30 1010.86 1010.46 1010.10 1009.74 1009.34 1008.90 1008.46 1008.10 1007.74 1007.46 1007.18 1006.94 1006.78 1006.62 1006.58 1006.58 1006.58 1006.70 1006.86 1007.02 1007.14 1007.30 1007.54 1007.74 1007.90 1008.14 1008.42 1008.62 1008.82 1009.02 1009.22 1009.46 1009.74 1010.02 1010.26 1010.50 1010.74
1020.50 1020.34 1020.18 1020.02 1019.78 1019.50 1019.22 1018.94 1018.74 1018.46 1018.26 1018.02 1017.74 1017.46 1017.18 1016.86 1016.54 1016.18 1015.86 1015.58 1015.26 1014.94 1014.66 1014.38 1014.14 1013.82 1013.46 1013.10 1012.70 1012.26 1011.78 1011.38 1010.90 1010.46 1010.10 1009.74 1009.34 1008.90 1008.50 1008.14 1007.86 1007.54 1007.22 1006.94 1006.74 1006.58 1006.50 1006.46 1006.54 1006.70 1006.86 1007.02 1007.14 1007.38 1007.58 1007.78 1007.98 1008.22 1008.46 1008.70 1008.90 1009.10 1009.30 1009.54 1009.78 1010.02 1010.30 1010.46 1010.70
1020.34 1020.22 1020.06 1019.90 1019.66 1019.42 1019.14 1018.90 1018.70 1018.46 1018.22 1017.98 1017.70 1017.38 1017.10 1016.82 1016.50 1016.18 1015.86 1015.54 1015.22 1014.94 1014.66 1014.42 1014.18 1013.90 1013.58 1013.26 1012.86 1012.42 1011.94 1011.46 1011.02 1010.58 1010.14 1009.74 1009.30 1008.90 1008.58 1008.26 1007.94 1007.66 1007.34 1007.02 1006.78 1006.58 1006.50 1006.46 1006.58 1006.74 1006.90 1007.06 1007.18 1007.42 1007.62 1007.86 1008.02 1008.26 1008.46 1008.74 1008.94 1009.14 1009.38 1009.58 1009.82 1010.06 1010.30 1010.46 1010.70
1020.30 1020.14 1019.98 1019.82 1019.58 1019.34 1019.14 1018.86 1018.70 1018.46 1018.22 1017.94 1017.66 1017.34 1017.02 1016.78 1016.50 1016.22 1015.90 1015.54 1015.18 1014.90 1014.66 1014.38 1014.14 1013.86 1013.54 1013.18 1012.86 1012.46 1012.02 1011.58 1011.10 1010.66 1010.26 1009.82 1009.42 1009.02 1008.62 1008.30 1008.02 1007.74 1007.46 1007.14 1006.86 1006.66 1006.54 1006.50 1006.58 1006.74 1007.02 1007.14 1007.30 1007.46 1007.66 1007.86 1008.10 1008.30 1008.54 1008.74 1008.98 1009.22 1009.46 1009.70 1009.90 1010.14 1010.30 1010.50 1010.74
1020.18 1020.06 1019.90 1019.74 1019.50 1019.30 1019.10 1018.86 1018.62 1018.42 1018.18 1017.94 1017.66 1017.34 1017.02 1016.74 1016.46 1016.18 1015.86 1015.50 1015.18 1014.90 1014.62 1014.34 1014.06 1013.78 1013.46 1013.10 1012.74 1012.42 1012.10 1011.74 1011.26 1010.78 1010.34 1009.98 1009.58 1009.14 1008.74 1008.38 1008.10 1007.82 1007.50 1007.26 1006.98 1006.78 1006.62 1006.58 1006.62 1006.78 1007.02 1007.18 1007.38 1007.58 1007.74 1007.94 1008.14 1008.38 1008.58 1008.82 1009.06 1009.30 1009.54 1009.74 1010.02 1010.22 1010.42 1010.58 1010.78
1020.02 1019.94 1019.82 1019.62 1019.46 1019.22 1019.02 1018.82 1018.58 1018.42 1018.18 1017.90 1017.66 1017.38 1017.06 1016.74 1016.46 1016.14 1015.82 1015.50 1015.22 1014.94 1014.66 1014.38 1014.14 1013.86 1013.54 1013.14 1012.82 1012.50 1012.18 1011.86 1011.46 1010.98 1010.54 1010.10 1009.74 1009.30 1008.86 1008.50 1008.14 1007.86 1007.62 1007.38 1007.14 1006.90 1006.74 1006.66 1006.70 1006.82 1007.02 1007.22 1007.46 1007.66 1007.82 1008.02 1008.26 1008.46 1008.70 1008.90 1009.14 1009.42 1009.62 1009.86 1010.14 1010.34 1010.50 1010.66 1010.86
1019.90 1019.82 1019.70 1019.58 1019.38 1019.14 1018.94 1018.74 1018.58 1018.38 1018.14 1017.90 1017.62 1017.34 1017.06 1016.74 1016.46 1016.10 1015.78 1015.54 1015.30 1015.06 1014.74 1014.46 1014.18 1013.90 1013.62 1013.26 1012.90 1012.58 1012.22 1011.94 1011.58 1011.14 1010.74 1010.26 1009.86 1009.46 1009.06 1008.62 1008.30 1008.02 1007.78 1007.50 1007.26 1007.02 1006.86 1006.78 1006.74 1006.82 1007.02 1007.26 1007.46 1007.66 1007.86 1008.06 1008.30 1008.54 1008.78 1009.02 1009.30 1009.54 1009.78 1010.02 1010.26 1010.46 1010.58 1010.74 1010.86
1019.82 1019.70 1019.58 1019.46 1019.30 1019.10 1018.90 1018.74 1018.54 1018.34 1018.14 1017.86 1017.58 1017.30 1017.02 1016.70 1016.42 1016.10 1015.78 1015.54 1015.34 1015.14 1014.90 1014.58 1014.30 1014.02 1013.70 1013.30 1012.94 1012.58 1012.26 1011.90 1011.58 1011.26 1010.86 1010.38 1010.02 1009.58 1009.18 1008.82 1008.46 1008.14 1007.90 1007.62 1007.42 1007.18 1007.02 1006.90 1006.78 1006.82 1007.02 1007.22 1007.46 1007.66 1007.86 1008.14 1008.38 1008.58 1008.86 1009.14 1009.46 1009.70 1009.94 1010.14 1010.30 1010.50 1010.66 1010.78 1010.90
1019.74 1019.58 1019.46 1019.34 1019.22 1019.02 1018.82 1018.66 1018.46 1018.30 1018.06 1017.86 1017.58 1017.30 1016.98 1016.70 1016.38 1016.06 1015.78 1015.50 1015.30 1015.14 1014.90 1014.62 1014.30 1014.02 1013.74 1013.34 1012.98 1012.62 1012.30 1011.90 1011.58 1011.22 1010.86 1010.46 1010.06 1009.66 1009.26 1008.94 1008.58 1008.26 1008.02 1007.74 1007.54 1007.34 1007.18 1007.02 1006.86 1006.86 1007.02 1007.26 1007.46 1007.66 1007.86 1008.14 1008.42 1008.70 1008.98 1009.26 1009.54 1009.78 1010.02 1010.26 1010.42 1010.58 1010.74 1010.86 1011.02
1019.62 1019.46 1019.34 1019.22 1019.06 1018.90 1018.74 1018.58 1018.38 1018.14 1017.94 1017.78 1017.54 1017.30 1016.98 1016.62 1016.34 1016.10 1015.78 1015.50 1015.30 1015.06 1014.86 1014.58 1014.30 1014.02 1013.74 1013.38 1013.02 1012.70 1012.34 1011.94 1011.58 1011.22 1010.86 1010.46 1010.10 1009.74 1009.34 1008.98 1008.62 1008.30 1008.02 1007.82 1007.62 1007.46 1007.30 1007.10 1006.98 1006.94 1007.06 1007.30 1007.50 1007.70 1007.90 1008.14 1008.46 1008.74 1009.02 1009.34 1009.58 1009.86 1010.10 1010.30 1010.50 1010.66 1010.82 1010.98 1011.14
Wind_Speed
8 8 7 7 7 7 6 6 7 8 8 8 9 9 9 9 9 9 8 8 8 9 9 9 10 10 12 14 15 16 16 16 16 16 16 16 16 16 16 15 14 13 13 13 13 13 12 12 11 10 8 8 9 10 9 9 10 10 9 9 8 7 8 9 9 9 10 9 7
8 8 8 8 7 7 6 7 7 7 8 8 8 9 9 9 9 9 9 9 9 10 10 10 11 12 14 15 15 16 16 16 16 16 16 16 16 16 16 16 15 14 13 13 13 12 11 12 11 10 8 8 9 9 10 9 10 10 11 12 9 8 8 8 9 9 10 10 8
8 8 8 7 7 7 7 7 7 8 9 8 8 8 9 9 8 9 9 9 10 11 11 10 11 13 15 16 15 15 15 16 16 16 16 15 15 15 15 14 15 14 13 13 12 12 11 11 11 10 9 8 9 9 10 10 10 11 11 13 9 8 7 7 8 8 8 8 8
7 8 8 8 8 8 8 7 8 9 9 8 8 8 8 8 8 9 9 10 11 11 11 11 12 13 14 15 16 17 17 17 17 17 16 15 15 15 15 15 16 16 15 13 13 13 13 13 11 10 9 10 11 10 10 9 10 10 10 11 9 8 7 7 7 7 8 8 8
8 8 7 8 8 8 8 8 9 9 9 8 8 8 8 8 8 9 10 10 11 11 12 14 13 13 14 15 18 19 19 19 18 17 16 16 16 16 16 16 16 16 15 14 14 14 14 14 10 9 9 10 10 10 10 11 11 10 9 8 8 8 8 7 7 7 7 7 8
8 8 8 8 8 8 8 8 9 9 8 8 8 9 9 8 9 10 11 11 12 13 14 15 14 14 15 17 18 19 19 19 18 17 17 18 17 16 16 16 16 16 15 14 14 14 14 13 10 9 9 9 10 10 11 12 11 10 9 8 8 8 8 8 7 7 7 8 9
8 8 9 9 9 9 9 8 9 9 8 8 9 10 11 10 11 12 13 12 12 12 13 12 13 14 15 17 17 18 18 18 18 19 19 18 17 16 15 14 15 15 16 15 14 13 12 12 9 9 9 9 9 10 12 12 11 11 10 10 9 8 9 9 8 7 8 11 11
8 8 8 9 9 9 10 10 9 9 8 8 9 11 12 12 13 13 13 13 12 12 12 12 14 16 17 17 17 18 18 19 19 19 19 18 18 18 17 15 14 14 15 15 14 13 11 10 9 9 9 9 8 9 12 14 13 12 12 11 9 9 9 9 8 8 9 12 13
8 8 9 9 9 9 10 10 9 9 9 9 10 11 12 12 13 13 13 12 12 13 13 13 15 17 18 18 18 18 18 18 18 18 18 18 18 18 17 16 15 14 13 13 14 13 13 10 10 10 10 9 9 10 12 15 15 15 14 12 10 10 9 9 10 10 10 12 13
9 9 9 9 9 10 10 10 9 10 10 10 11 11 12 13 13 13 12 11 12 13 14 14 16 17 18 18 18 18 17 17 17 18 19 19 19 19 18 16 16 15 14 13 13 13 13 11 11 11 11 10 11 12 13 15 16 16 14 11 11 11 11 11 11 11 11 12 14
10 10 10 9 10 10 10 9 9 9 10 10 11 11 12 12 12 12 12 12 13 14 15 15 16 17 17 17 17 17 17 17 17 18 19 20 20 20 19 18 18 17 16 14 13 12 12 11 12 13 13 12 12 13 14 16 16 17 15 12 12 13 13 12 12 11 11 12 14
10 10 9 9 10 10 9 9 9 9 10 10 11 11 11 11 12 13 13 14 15 15 15 15 16 17 17 15 16 17 17 18 19 20 20 21 21 21 20 19 19 18 18 17 14 13 12 12 13 14 15 15 12 12 13 16 17 17 16 14 14 14 14 14 13 11 11 12 13
10 9 9 9 9 9 9 9 9 9 10 11 11 11 11 11 12 13 14 15 15 15 14 15 15 16 16 16 17 17 18 18 20 20 20 21 21 21 21 20 19 19 18 17 15 13 12 12 13 15 16 16 13 12 14 16 17 16 16 15 15 14 14 14 13 12 11 12 13
9 9 9 10 10 9 9 9 9 9 10 11 11 11 11 12 12 13 13 14 14 14 14 15 14 15 15 17 18 19 20 20 21 21 22 22 22 22 21 20 19 19 18 16 15 14 14 12 13 14 15 16 15 14 15 16 16 16 16 16 15 15 15 15 14 13 13 13 14
10 10 10 10 10 10 9 10 9 9 10 11 11 11 11 11 12 12 13 14 14 14 14 14 14 15 16 19 20 21 21 21 22 22 23 23 22 22 21 20 19 18 17 15 14 14 14 13 14 15 16 16 16 16 16 16 16 16 16 16 16 15 15 15 14 13 13 14 14
10 10 10 10 10 10 10 10 9 9 10 11 12 12 12 11 11 12 13 14 14 13 13 14 15 15 16 18 20 21 22 22 22 22 23 22 22 21 21 20 18 17 16 15 14 13 13 13 14 15 16 16 16 16 16 17 17 16 16 16 16 15 15 15 14 14 14 15 15
10 11 11 11 11 11 11 11 10 10 11 12 13 13 12 12 12 12 13 14 14 14 15 16 15 15 16 18 19 20 21 21 22 22 22 22 21 20 19 18 16 15 14 14 14 13 13 13 13 14 15 16 16 16 17 17 17 16 16 16 15 15 16 16 15 14 14 15 15
11 11 11 11 12 12 13 12 12 12 13 13 13 13 13 13 13 13 13 14 15 16 16 17 16 15 16 18 19 19 20 21 24 24 23 22 19 17 16 15 14 13 13 13 14 14 14 14 14 14 15 15 16 16 16 17 16 16 16 15 15 15 15 16 15 14 14 16 16
11 11 11 12 12 13 13 13 13 13 13 13 13 14 14 14 14 14 14 15 16 16 17 17 16 16 16 18 19 20 21 22 25 26 25 21 17 14 13 12 12 12 12 13 13 13 14 14 14 15 15 15 15 15 16 16 15 15 16 15 15 15 15 15 15 15 14 15 15
11 11 12 12 12 12 13 13 13 13 13 13 14 14 15 15 15 15 15 16 16 16 16 16 16 16 17 18 20 21 22 21 24 25 23 19 15 13 12 11 12 12 13 13 13 14 14 14 15 15 15 16 16 16 16 16 15 15 15 14 15 15 15 15 15 15 14 14 14
11 11 11 11 12 12 12 12 13 13 13 13 14 15 15 15 15 16 16 16 16 16 16 16 16 17 18 19 20 22 22 21 22 22 19 17 15 13 12 11 12 12 13 13 14 15 15 15 15 15 16 16 17 17 16 16 15 15 15 14 14 14 15 15 15 14 14 13 13
10 10 11 11 12 12 12 12 12 13 13 13 14 15 15 15 15 16 16 16 16 15 16 16 16 17 17 18 20 21 22 22 22 20 17 15 14 13 11 10 11 11 12 13 14 15 16 16 15 15 16 16 17 17 16 15 15 15 15 14 14 14 14 14 14 14 13 12 13
11 11 11 11 11 12 13 13 12 13 13 14 14 15 15 15 16 16 16 16 15 15 15 15 15 16 17 18 19 20 21 23 22 20 18 16 14 13 12 10 10 10 9 9 10 11 12 12 13 14 14 14 15 15 14 14 14 13 13 14 14 14 14 14 13 13 12 12 12
11 11 11 10 11 12 12 12 12 13 13 14 14 15 15 15 16 16 16 16 15 15 15 14 14 15 17 17 18 19 20 22 23 22 20 18 15 13 12 10 9 9 8 7 7 7 5 4 6 9 11 11 11 11 11 11 11 11 11 12 13 13 13 12 12 12 12 12 12
11 11 11 11 11 12 12 12 12 13 13 13 14 14 15 16 16 16 16 16 16 16 16 16 16 15 15 16 17 18 19 20 21 22 22 20 17 14 11 9 9 8 8 8 12 13 10 5 1 3 7 9 9 8 8 8 9 9 9 10 11 11 11 11 11 11 12 12 12
12 12 12 12 12 12 12 12 12 12 13 13 14 15 15 16 16 16 16 16 16 16 16 16 15 15 15 15 16 17 18 18 19 20 21 20 18 15 12 9 8 7 8 10 13 14 11 6 3 1 3 6 7 8 8 8 8 9 9 9 9 10 10 9 9 10 11 11 11
12 12 12 12 12 12 12 12 12 12 13 13 14 15 15 16 15 16 16 16 16 15 15 14 14 15 15 14 16 17 18 17 18 19 19 19 19 17 13 9 7 6 7 11 13 13 11 7 3 1 2 4 6 8 8 8 8 8 9 8 9 9 10 10 10 10 10 11 11
12 12 12 12 12 12 12 12 12 12 13 13 13 14 15 16 16 16 16 16 15 15 14 13 13 12 12 13 15 17 18 18 17 17 17 18 18 17 15 11 8 7 8 12 13 12 11 10 7 6 5 5 6 7 8 9 9 8 8 8 9 10 11 11 10 10 10 11 11
13 12 12 12 12 12 12 12 12 12 12 12 13 14 14 15 16 16 16 16 16 15 13 12 11 11 12 13 15 17 18 18 17 16 16 18 18 18 16 14 11 10 11 13 14 14 13 13 11 9 9 9 6 6 7 8 8 8 8 8 9 10 11 11 11 11 11 11 10
12 12 12 12 12 12 12 12 12 11 11 11 12 13 14 14 15 16 16 16 16 15 13 12 12 13 14 15 16 16 17 17 17 16 17 18 18 18 17 16 13 12 13 15 16 15 15 14 12 11 10 12 8 7 7 8 8 8 8 7 9 10 12 12 13 12 11 10 10
12 12 12 12 12 12 12 12 11 11 11 11 12 13 14 14 15 16 16 16 15 15 14 14 14 15 16 16 16 17 18 18 17 17 17 18 18 18 17 16 15 14 14 17 17 17 15 13 12 10 10 13 10 7 7 8 8 8 8 8 9 10 11 11 12 13 12 12 11
12 12 11 11 12 12 12 12 12 12 12 13 13 14 15 15 16 16 15 15 15 15 15 15 16 16 16 17 17 18 18 18 18 18 18 18 18 18 17 15 14 14 15 18 19 18 16 12 10 9 10 14 11 9 8 8 8 8 8 9 10 10 10 10 10 12 13 13 12
11 11 12 12 12 12 12 12 12 12 13 13 14 14 15 16 16 16 15 15 14 14 15 15 15 15 16 16 17 18 18 18 19 19 20 20 19 18 17 14 12 13 16 19 20 18 16 12 9 7 10 15 11 9 8 8 7 7 8 9 10 11 11 11 11 11 12 12 11
11 11 11 12 12 12 12 12 12 12 13 13 14 15 15 15 16 16 15 15 14 14 13 13 13 14 14 14 15 17 18 18 18 19 20 20 19 18 16 14 11 13 17 21 20 19 16 12 9 7 9 14 11 9 8 8 7 7 8 10 10 11 11 11 11 12 12 12 11
11 11 11 11 11 11 11 11 11 12 13 14 14 15 15 15 15 15 15 15 15 14 13 12 12 12 13 14 14 16 17 19 19 19 19 19 19 18 17 16 14 16 19 21 20 18 16 12 9 6 8 11 9 8 8 9 8 9 9 10 11 11 11 11 11 11 11 11 10
10 10 10 11 11 11 11 11 11 12 12 13 14 15 15 15 14 14 14 15 15 15 14 14 13 13 14 15 14 15 17 18 18 19 19 19 19 19 18 17 15 17 19 20 19 18 15 12 9 6 6 8 7 7 8 8 8 9 10 11 11 11 11 10 10 10 10 10 10
10 10 10 10 10 10 10 10 11 12 12 13 13 14 14 14 14 14 14 15 14 14 14 14 14 14 14 15 14 15 16 17 18 18 19 19 18 18 18 17 16 15 16 18 19 18 16 13 10 7 4 6 6 7 7 7 7 8 10 10 10 10 10 9 9 9 9 9 10
10 9 9 9 9 10 10 10 11 12 12 13 12 12 12 12 12 12 13 14 13 14 14 13 13 13 14 14 14 15 16 17 18 18 18 18 18 18 17 17 15 14 14 16 18 18 17 15 12 8 4 6 7 8 7 7 7 8 9 9 9 9 9 8 7 8 9 10 12
9 9 8 8 9 9 10 10 11 11 12 12 11 12 12 11 10 11 12 13 12 12 12 12 12 13 13 14 14 15 16 17 18 18 18 18 18 18 18 17 14 13 13 15 17 18 18 17 15 10 3 8 8 8 7 7 8 9 9 8 8 8 8 7 7 7 8 10 14
9 8 8 8 8 9 9 10 11 11 11 11 11 12 12 11 10 11 12 12 11 11 11 11 12 12 12 13 14 15 17 18 18 18 18 18 19 19 19 16 14 13 13 14 16 17 17 18 17 10 1 9 9 8 7 8 8 9 9 8 8 7 7 6 6 6 7 9 13
8 7 7 8 8 8 9 10 11 11 10 10 11 10 10 10 10 11 11 12 12 11 10 10 11 12 12 12 12 14 17 19 19 20 20 20 19 18 17 15 13 12 11 12 14 16 17 19 16 6 4 10 9 8 7 8 9 9 9 8 8 7 7 6 6 6 6 7 8
Wind_Direction
338 337 335 333 333 332 330 328 327 328 329 327 324 322 320 317 314 312 311 310 310 309 308 306 304 301 300 298 296 293 291 289 286 283 279 275 272 270 267 260 247 236 227 225 222 220 218 216 214 214 214 211 209 208 206 203 201 200 201 201 201 201 201 202 198 191 187 188 192
332 331 329 328 329 328 327 325 326 326 326 324 322 320 318 316 314 312 311 311 311 310 308 306 304 302 300 298 295 293 291 288 286 284 281 278 273 270 267 264 255 243 231 225 222 220 217 214 214 214 214 212 208 206 204 201 197 198 199 201 200 199 200 203 200 192 186 184 188
328 327 327 327 327 327 326 324 323 322 321 320 318 317 316 314 313 312 312 311 310 309 308 307 306 304 302 300 298 295 293 290 288 286 283 280 276 271 266 264 259 249 237 226 222 220 217 213 213 213 213 211 207 204 203 200 197 198 199 201 199 198 199 204 199 191 185 182 184
326 326 325 324 323 322 320 318 318 318 318 316 315 314 314 313 312 312 311 310 309 309 308 308 306 305 304 304 303 302 299 296 293 290 286 283 279 273 268 262 258 251 241 230 225 222 218 213 212 213 213 212 208 205 202 198 197 198 200 200 198 197 198 203 198 193 187 183 181
324 323 322 320 318 316 314 312 313 314 314 313 313 313 313 313 312 312 312 311 310 309 307 307 306 305 306 306 307 306 304 302 299 295 291 288 284 279 273 265 259 252 244 231 225 222 219 213 213 214 214 212 210 207 203 198 197 197 199 198 195 193 193 197 196 194 190 184 179
320 319 317 316 314 313 311 310 310 310 309 309 308 308 310 311 312 312 311 310 308 307 306 306 306 306 306 307 307 306 305 303 300 297 294 292 288 284 279 273 269 264 257 244 231 225 223 222 221 217 214 213 214 210 205 198 196 196 197 197 193 190 188 190 191 192 190 184 176
315 315 315 315 314 312 311 310 309 308 307 305 304 304 305 306 307 308 308 308 308 308 308 308 308 308 307 307 305 304 302 300 298 296 293 291 288 285 281 277 274 272 269 263 247 234 228 231 230 224 217 213 214 211 206 199 196 195 195 196 193 189 187 188 187 188 187 182 175
313 313 313 313 312 310 308 308 308 307 307 305 303 302 302 303 305 307 308 309 310 310 310 309 308 307 306 305 303 302 300 298 296 294 292 289 287 284 280 275 271 269 269 268 258 243 230 229 234 231 225 215 214 210 205 200 196 194 193 193 192 189 187 188 186 185 183 179 174
317 315 313 312 310 308 306 305 305 304 303 301 300 299 300 303 306 309 310 310 309 309 309 308 308 307 305 304 302 301 299 298 296 293 290 287 285 282 280 276 271 266 263 262 257 244 231 225 231 232 228 218 213 209 204 200 196 194 192 192 190 187 185 187 187 185 182 177 173
317 316 315 313 310 307 306 305 303 301 299 299 298 299 301 305 308 310 310 308 307 308 309 309 308 307 306 304 302 300 299 297 295 292 290 286 282 279 277 275 272 268 262 256 251 243 235 228 228 227 225 219 213 208 203 199 196 194 192 191 188 185 183 185 186 185 182 177 173
315 314 313 312 309 307 307 306 304 303 301 300 301 302 304 307 308 309 308 307 307 307 308 309 309 308 306 303 302 300 298 297 295 293 290 286 281 277 274 272 271 269 265 258 251 247 245 242 235 228 223 217 212 207 203 200 196 193 191 189 186 183 182 183 184 184 182 178 173
314 313 312 310 308 308 308 307 306 305 304 302 302 304 306 307 308 309 310 310 309 308 308 309 309 308 307 304 302 300 298 295 293 291 289 285 281 277 273 269 267 265 263 260 253 249 249 250 242 233 224 215 211 206 202 199 196 193 189 186 183 181 181 181 183 183 181 177 174
314 314 313 312 311 311 310 310 308 307 306 304 304 305 306 307 308 309 310 311 310 308 308 309 309 309 307 305 303 300 298 295 292 289 286 283 280 276 272 267 264 261 259 257 251 246 243 243 238 231 223 214 208 203 199 197 194 191 187 182 180 179 179 180 181 181 180 177 175
314 315 315 315 315 315 315 314 312 310 308 307 306 306 307 307 308 309 310 310 309 308 308 308 309 309 309 308 305 302 299 295 292 289 285 282 279 275 270 266 261 258 256 254 250 245 240 235 233 229 223 214 207 201 196 194 193 190 185 180 178 177 177 178 179 179 177 176 176
316 317 317 318 319 319 318 317 315 312 310 309 308 308 308 308 308 309 309 309 309 307 307 307 308 309 309 309 307 305 302 298 294 290 286 282 277 273 268 263 259 257 255 255 252 246 238 233 234 232 226 216 206 199 194 192 191 189 185 181 177 176 175 176 177 177 176 176 177
318 318 320 321 322 321 320 319 316 314 312 310 310 310 309 308 308 308 309 309 309 308 307 306 307 308 310 311 310 309 306 303 298 293 288 283 278 272 267 261 258 258 258 258 253 246 238 233 234 233 228 218 206 198 193 191 189 188 185 182 178 175 174 175 176 177 177 177 178
318 319 320 322 322 321 320 318 317 315 313 312 311 311 310 308 308 308 309 309 309 308 307 306 306 308 310 312 313 312 311 309 304 299 293 285 278 271 266 261 260 260 260 260 254 247 240 233 231 230 226 218 206 197 192 189 187 186 184 181 177 175 174 175 176 176 177 179 180
317 318 319 321 321 320 319 317 316 315 314 313 312 311 310 309 308 308 308 308 308 308 307 306 306 307 309 311 313 315 315 314 310 305 299 290 280 271 265 262 261 260 260 260 256 251 245 237 230 227 223 216 206 197 191 187 185 183 182 180 177 175 174 174 175 176 178 181 181
314 315 317 318 318 317 316 315 315 314 313 312 312 311 310 309 309 308 308 308 308 308 307 306 306 307 308 311 313 316 318 317 313 308 303 296 286 277 269 266 264 263 261 259 256 252 247 240 232 225 219 212 203 195 189 185 182 180 179 178 175 173 172 173 175 177 179 182 180
311 312 314 315 314 314 313 313 313 313 312 312 312 311 310 310 310 309 309 308 308 308 308 307 307 307 309 311 315 318 320 318 313 309 306 304 299 289 279 273 270 267 264 259 254 249 245 241 232 223 214 206 198 191 186 182 179 177 176 175 172 171 170 171 174 176 178 179 177
307 308 309 310 310 310 310 310 310 311 312 312 312 312 311 311 311 310 309 308 308 308 308 308 308 308 309 311 316 319 320 317 311 308 308 312 308 300 289 280 274 269 264 258 253 248 243 238 229 218 208 199 192 186 181 178 176 175 174 173 170 168 167 168 172 174 175 174 172
304 305 306 307 307 307 308 308 310 312 313 314 314 314 314 313 313 311 310 309 309 310 310 310 310 310 310 312 316 319 319 317 311 308 309 317 317 313 305 295 288 280 273 266 259 251 243 233 220 207 197 189 183 178 174 171 171 171 171 170 167 165 164 165 168 170 169 167 165
301 303 304 305 305 306 307 309 311 313 314 315 316 316 316 315 314 313 312 312 311 312 312 312 312 311 311 312 315 318 319 317 313 311 312 319 324 325 322 316 311 305 299 290 278 263 246 225 205 191 181 174 169 165 162 162 163 164 164 163 161 159 160 162 164 163 161 158 158
300 302 303 303 305 306 307 310 312 314 316 317 317 317 317 317 316 316 315 314 313 314 314 315 315 314 313 313 315 317 318 318 317 316 316 319 325 328 329 326 326 327 328 331 333 326 306 237 185 169 160 154 152 151 152 153 154 153 152 152 151 151 153 156 157 156 154 152 153
300 301 302 302 304 305 307 310 313 314 315 316 317 318 319 319 319 318 317 316 315 315 316 317 316 316 316 316 317 318 319 319 319 319 319 320 323 326 329 329 331 334 338 341 347 347 345 334 336 140 136 136 139 143 146 145 141 139 137 137 139 142 145 148 149 150 150 150 151
301 301 302 302 304 306 307 309 311 312 314 316 318 320 321 321 320 319 318 317 317 317 318 319 318 319 320 319 319 319 320 320 320 320 321 320 321 323 326 328 329 330 332 333 338 340 340 337 339 57 116 128 139 144 144 139 132 128 127 129 133 138 141 144 146 148 150 150 151
302 302 302 302 304 305 306 307 310 313 316 318 320 321 321 321 320 320 319 318 317 318 319 320 320 321 321 320 321 321 321 320 320 320 320 320 320 321 322 323 321 318 317 318 320 321 321 315 300 246 160 142 145 145 142 137 131 129 130 135 140 143 145 146 147 149 150 150 150
302 301 302 304 304 304 304 307 311 314 317 319 319 320 320 320 320 320 319 319 319 320 321 321 321 321 322 322 322 322 321 321 321 321 321 321 321 320 320 319 313 305 300 300 301 297 290 280 258 229 200 177 155 143 138 135 135 137 142 148 152 153 153 151 150 150 150 149 149
301 302 303 304 303 303 304 307 311 313 315 317 318 319 320 320 321 321 321 321 321 322 322 321 321 322 322 323 322 322 322 322 322 322 322 322 322 322 320 319 314 306 298 296 293 287 277 266 252 230 203 178 164 150 144 141 142 146 151 157 160 159 156 153 152 151 150 147 147
302 302 302 302 301 301 303 305 308 311 314 316 319 320 321 321 322 323 323 323 322 321 319 319 320 321 321 321 321 322 323 323 323 323 323 324 323 322 320 317 314 309 304 302 297 290 282 271 258 236 204 173 160 152 149 146 147 150 153 157 158 156 153 150 149 148 148 147 147
302 302 301 300 299 299 300 302 307 312 316 319 322 322 323 324 324 324 324 322 320 318 318 319 320 320 320 320 322 323 324 324 324 325 325 325 323 321 318 315 312 309 307 306 301 296 290 281 264 238 202 169 156 149 148 147 147 148 151 152 151 149 147 144 145 146 147 148 149
302 302 301 300 298 298 300 304 310 316 320 322 323 324 324 325 324 324 323 321 319 319 320 322 323 323 323 323 324 325 326 325 326 326 326 326 323 321 318 314 313 311 309 309 306 302 296 289 270 236 195 167 154 146 144 144 144 145 146 146 145 144 143 142 143 146 148 150 151
302 303 302 300 299 299 301 306 313 318 321 323 324 324 325 325 324 324 323 322 321 321 321 322 323 323 323 324 325 326 327 327 327 327 327 326 324 322 320 318 316 315 314 312 309 304 298 290 275 235 191 166 153 145 143 142 142 143 144 145 145 144 143 144 146 148 150 152 153
303 303 302 300 298 299 302 307 313 318 322 323 324 324 325 325 324 324 323 322 321 321 320 321 320 320 320 322 325 327 328 328 328 328 327 327 325 324 324 324 322 320 318 316 311 305 298 288 275 237 192 168 156 147 144 142 142 143 144 145 146 146 147 147 149 150 152 152 152
303 303 301 299 297 298 302 307 313 319 322 324 324 324 324 324 323 322 321 320 321 320 320 320 319 319 320 324 327 330 330 330 329 328 327 327 327 326 325 325 322 321 321 319 315 310 301 290 279 242 197 174 159 149 145 143 142 142 142 143 143 144 145 146 148 150 151 151 151
301 301 300 298 297 299 302 308 315 320 323 324 323 323 322 322 321 320 319 320 321 321 320 320 321 322 324 328 332 334 334 332 330 328 328 328 327 326 324 323 322 323 324 324 322 317 309 296 284 252 204 175 157 147 145 143 140 140 139 139 139 140 141 143 146 148 150 151 150
300 299 298 297 297 299 303 310 317 321 323 323 321 320 319 318 318 318 319 322 322 321 320 320 321 323 325 329 334 336 336 333 331 330 329 329 328 325 323 321 321 324 327 329 328 325 319 305 290 269 226 173 152 145 143 140 137 136 136 134 134 136 138 140 144 147 150 152 151
299 298 297 296 296 299 305 313 319 322 322 320 319 317 316 315 316 317 319 322 321 320 319 319 320 321 323 328 334 336 337 335 334 332 331 329 327 325 322 320 320 322 326 331 333 333 330 322 306 292 258 160 148 143 141 137 136 135 134 132 133 135 138 141 145 149 151 153 152
298 297 295 293 294 299 307 315 319 321 320 319 317 315 315 314 314 315 317 319 318 317 316 315 316 318 321 328 336 339 339 337 337 335 333 331 328 325 323 319 317 317 321 327 332 334 334 330 319 310 272 148 143 141 137 135 135 134 133 132 133 136 140 141 145 148 150 151 151
296 294 292 290 294 301 309 316 318 319 319 318 316 314 313 313 312 313 315 317 316 315 314 312 313 315 320 330 339 342 342 340 340 338 336 333 329 326 323 317 313 312 315 321 327 331 331 329 324 318 211 141 140 137 135 135 134 133 133 133 135 136 137 138 140 141 143 146 148
294 293 292 292 297 304 311 316 317 318 318 317 314 311 309 310 311 313 315 316 316 315 314 312 313 315 321 332 341 345 346 344 343 341 338 335 331 327 322 315 310 308 310 316 323 326 327 325 324 320 150 139 137 135 134 135 133 133 133 134 134 134 133 132 132 132 135 139 144